Tracking 31011 objects as of 12-Jul-2025
HD Live streaming from Space Station
objects crossing your sky now

STARLINK-32608

Track STARLINK-32608 now!
10-day predictions
STARLINK-32608 is classified as:


NORAD ID: 62124
Int'l Code: 2024-222L
Perigee: 489.4 km
Apogee: 490.9 km
Inclination: 43.0 °
Period: 94.3 minutes
Semi major axis: 6861 km
RCS: Unknown
Launch date: November 26, 2024
Source: (USA)
Launch site: AIR FORCE EASTERN TEST RANGE (AFETR)
Your satellite tracking list
Your tracking list is empty




NASA's NSSDC Master Catalog

Two Line Element Set (TLE):
1 62124U 24222L   25193.02306093  .00008506  00000-0  31817-3 0  9992
2 62124  43.0009  55.2108 0001074 258.2023 101.8708 15.27590802 35932
Source of the keplerian elements: AFSPC